| Date | Temp | Humidity | Rainfall | Dew Point | Wind Direction | Wind Speed | Wind Pressure | Condition | Visibility |
|---|---|---|---|---|---|---|---|---|---|
| 2025-03-21 21:01:01 | 27 | 85 | 0.00 | 24 | 130 | 5.7 | 1014 | Lightning | 10 km |
| 2025-03-21 20:01:32 | 27 | 83 | 0.00 | 24 | 020 | 5.7 | 1013 | Night Thunderstorm | 10 km |
| 2025-03-21 19:05:37 | 27 | 83 | 0.00 | 24 | 350 | 7.6 | 1012 | Night Thunderstorm | 10 km |
| 2025-03-21 18:00:42 | 28 | 79 | 0.00 | 24 | 330 | 11.4 | 1011 | Cloudy | 10 KM |
| 2025-03-21 16:58:35 | 28 | 76 | 0.00 | 23 | 310 | 11.4 | 1010 | Cloudy | 20 km |
| 2025-03-21 15:58:33 | 29 | 76 | 0.00 | 24 | 320 | 13.3 | 1010 | Cloudy | 20 km |
| 2025-03-21 14:58:30 | 29 | 76 | 0.00 | 24 | 290 | 15.2 | 1010 | Cloudy | 20 KM |
| 2025-03-21 14:01:10 | 29 | 76 | 0.00 | 24 | 300 | 17.1 | 1011 | Partly Cloudy (Day) | 10 KM |
| 2025-03-21 13:28:32 | 30 | 69 | 0.00 | 24 | 210 | 15.2 | 1013 | Partly Cloudy (Day) | 10 km |
| 2025-03-21 12:29:32 | 30 | 67 | 0.0 | 23 | 220 | 18 | 1014 | Cloudy | 20 km |
| 2025-03-21 11:59:52 | 29 | 70 | 0.0 | 23 | 220 | 20 | 1014 | Partly Cloudy (Day) | 20 km |
| 2025-03-21 10:59:43 | 28 | 75 | 0.0 | 23 | 240 | 14 | 1015 | Cloudy | 20 km |
| 2025-03-21 10:00:59 | 27 | 78 | 0.00 | 23 | 230 | 5.7 | 1015 | Partly Cloudy (Day) | 15KM |
| 2025-03-21 09:00:34 | 26 | 85 | 0.00 | 23 | 190 | 9.5 | 1014 | Partly Cloudy (Day) | 10KM |
| 2025-03-21 08:01:17 | 25 | 91 | 0.00 | 23 | 200 | 5.7 | 1013 | Partly Cloudy (Day) | 10 KM |
| 2025-03-21 06:57:47 | 24 | 95 | 0.00 | 23 | 200 | 7.6 | 1013 | Partly Cloudy (Day) | 10 KM |
| 2025-03-21 05:56:23 | 24 | 96 | 0.00 | 23 | 190 | 04 | 1013 | Partly Cloudy (Night) | 10 KM |
| 2025-03-21 04:56:24 | 24 | 96 | 0.00 | 23 | 190 | 04 | 1012 | Partly Cloudy (Night) | 10 KM |
| 2025-03-21 04:49:32 | 24 | 96 | 0.00 | 23 | 180 | 03 | 1013 | Partly Cloudy (Night) | 10 KM |
| 2025-03-21 03:03:45 | 24 | 96 | 23 | 210 | 5.7 | 1013 | Rain | 10 KM | |
| 2025-03-21 01:56:04 | 24 | 97 | 0.0 | 23 | 200 | 2.0 | 1013 | Rain | 10 KM |
| 2025-03-21 00:56:23 | 24 | 97 | 0.0 | 23 | 170 | 5.0 | 1014 | Rain | 10 KM |
| 2025-03-20 23:57:02 | 24 | 97 | 0.0 | 23 | 190 | 9.5 | 1014 | Rain | 10 km |
| 2025-03-20 22:58:42 | 24 | 97 | 0.0 | 23 | 220 | 5.7 | 1015 | Rain | 10 KM |
| 2025-03-20 21:56:55 | 24 | 98 | 0.0 | 23 | 170 | 7.6 | 1014 | Rain | 08 KM |